[[{"header":{"parameterUnit":"m.s-1","parameterCategory":1,"la1":30.2991,"la2":30.254,"lo1":-89.0895,"lo2":-89.0444,"dy":0.0017,"dx":0.0017,"nx":28,"ny":28,"refTime":"2024-09-01T03:00:00:Z","depth":0,"parameterNumber":2,"parameterNumberName":"U-component_of_WINDS"},"data":[0,0,0,0,0,0,0,0,0,0,0,0,0,0,0,0,0,0,0,0,0,0,0,0,0,0,0,0,0,0,0,0,0,0,0,0,0,0,0,0,0,0,0,0,0,0,0,0,0,0,0,0,0,0,0,0,0,0,0.2717,0.2718,0,0.2884,0.2886,0.2887,0.2929,0.2928,0.2927,0.2926,0.3097,0.3102,0.3108,0,0,0,0,0,0,0,0,0,0,0,0,0,0.2431,0.2436,0.2716,0.2719,0.2721,0.2883,0.2886,0.2888,0.2929,0.2928,0.2927,0.2926,0.3095,0.3102,0.3108,0,0,0,0,0,0,0,0,0,0,0,0,0,0.2572,0.2437,0.2716,0.2761,0.2767,0.2883,0.2886,0.2889,0.293,0.2928,0.2926,0.2925,0.3093,0.3101,0.3109,0.3193,0,0,0.3135,0.3138,0,0,0,0,0,0,0,0,0.2564,0.2582,0.2752,0.2758,0.2765,0.2884,0.2848,0.299,0.293,0.2868,0.2926,0.2924,0.3027,0.3041,0.3076,0.3201,0.3208,0.3135,0.314,0.3144,0.3146,0,0,0,0,0,0,0,0.2554,0.2575,0.2783,0.2755,0.2762,0.2772,0.279,0.2875,0.2954,0.2873,0.2876,0.2896,0.303,0.3068,0.308,0.321,0.3135,0.3142,0.3148,0.3151,0.3408,0.341,0,0,0,0,0,0,0.2537,0.2567,0.2777,0.2788,0.2658,0.2778,0.2799,0.2847,0.2954,0.2968,0.2897,0.2897,0.3054,0.307,0.3086,0.3189,0.3144,0.3152,0.3156,0.3406,0.3409,0.3411,0,0,0,0,0,0,0.253,0.2555,0.2771,0.2678,0.2706,0.2785,0.2839,0.2851,0.2889,0.2972,0.2986,0.292,0.3054,0.3075,0.3165,0.3195,0.3155,0.3163,0.3404,0.3407,0.341,0.3395,0,0,0,0,0,0,0.2522,0.2553,0.2586,0.2679,0.2711,0.2847,0.2841,0.2856,0.2903,0.2905,0.2998,0.3011,0.3054,0.3152,0.3173,0.3206,0.3169,0.3402,0.3406,0.3409,0.3393,0.3397,0.34,0,0,0,0,0,0.2512,0.2576,0.2587,0.2613,0.2755,0.2849,0.2868,0.2915,0.2905,0.2939,0.2991,0.3009,0.3188,0.3161,0.3185,0.3221,0.34,0.3405,0.3409,0.3392,0.3396,0.34,0,0,0,0,0,0,0.2485,0.2589,0.2603,0.2699,0.2765,0.2856,0.29,0.2919,0.2989,0.2988,0.3044,0.3064,0.315,0.3195,0.3163,0.3305,0.3294,0.3303,0.3273,0.3278,0.3282,0.3269,0.3176,0,0,0,0,0,0.249,0.2559,0.2646,0.2722,0.2754,0.2821,0.2864,0.2895,0.2965,0.2993,0.3053,0.312,0.3191,0.3237,0.3308,0.34,0.3419,0.3436,0.3439,0.3442,0.3449,0.3497,0.3505,0.3424,0.3424,0.3424,0,0,0.2502,0.2567,0.2608,0.2719,0.2773,0.2841,0.2845,0.2918,0.2969,0.3005,0.3093,0.3139,0.3217,0.3307,0.3351,0.3347,0.3475,0.3447,0.3448,0.3454,0.3502,0.351,0.3516,0.3427,0.3427,0.3426,0,0,0.2559,0.2616,0.2684,0.2738,0.282,0.2864,0.288,0.2968,0.2999,0.3089,0.3116,0.3177,0.33,0.3353,0.3397,0.3469,0.3487,0.3491,0.3509,0.3556,0.3562,0.3568,0.3591,0.3599,0.3498,0.3498,0.3498,0,0.2563,0.2668,0.2717,0.2788,0.2835,0.287,0.2938,0.2988,0.3089,0.312,0.3115,0.3267,0.3323,0.3425,0.3442,0.3477,0.3495,0.3481,0.3557,0.3564,0.357,0.3593,0.3602,0.3497,0.3497,0.3498,0.3498,0,0.2668,0.274,0.2785,0.288,0.2933,0.3002,0.306,0.3107,0.3132,0.3176,0.3265,0.3332,0.3415,0.3442,0.3468,0.3547,0.3542,0.3546,0.3536,0.3576,0.3599,0.3608,0.3497,0.3497,0.3497,0.3497,0,0,0.2713,0.2833,0.2849,0.2891,0.2983,0.3039,0.3109,0.319,0.3227,0.3295,0.3353,0.3455,0.3458,0.3507,0.354,0.3581,0.363,0.358,0.3583,0.3585,0.3718,0.3713,0.3723,0.3642,0.3644,0.3646,0.3711,0,0.2779,0.2906,0.2951,0.3054,0.312,0.3152,0.3213,0.3274,0.3316,0.3377,0.3423,0.3493,0.3494,0.3523,0.3565,0.3615,0.3658,0.3612,0.3696,0.3698,0.3674,0.3735,0.3731,0.3789,0.372,0.3722,0.3723,0,0.2874,0.2941,0.3051,0.3132,0.3161,0.3215,0.3291,0.3349,0.3419,0.3446,0.3499,0.3527,0.36,0.3585,0.3684,0.3651,0.3688,0.3718,0.3721,0.373,0.3712,0.3744,0.3809,0.3817,0.3738,0.3736,0.3735,0,0.2893,0.3012,0.3092,0.3128,0.3224,0.3261,0.3303,0.3371,0.3415,0.3482,0.3511,0.3584,0.3624,0.368,0.3727,0.3712,0.382,0.381,0.3843,0.3842,0.3864,0.3862,0.3934,0.389,0.389,0.389,0.389,0,0.2962,0.3027,0.3102,0.3151,0.3224,0.3274,0.3345,0.3389,0.3448,0.3505,0.3538,0.3591,0.365,0.371,0.3747,0.3821,0.384,0.3862,0.3871,0.3859,0.3856,0.3883,0.388,0.3892,0.3892,0.3891,0.3891,0,0.2996,0.3049,0.3138,0.3221,0.3244,0.3294,0.3364,0.3412,0.3455,0.3526,0.3546,0.3612,0.3683,0.3735,0.3828,0.3853,0.3932,0.3942,0.3908,0.3912,0.3942,0.3937,0.4033,0.4047,0.3995,0.3995,0.3995,0,0.3036,0.3086,0.3174,0.3215,0.3256,0.3321,0.3366,0.3417,0.3462,0.3543,0.3581,0.3655,0.3716,0.3829,0.3884,0.3954,0.3965,0.3994,0.3976,0.3961,0.3963,0.3959,0.3963,0.3996,0.3996,0.3997,0.3997,0,0.3099,0.3122,0.3186,0.3259,0.3312,0.3371,0.3431,0.3462,0.3523,0.3572,0.3645,0.3693,0.3786,0.3858,0.3933,0.3975,0.3995,0.4002,0.4013,0.4,0.3978,0.3988,0.3913,0.3999,0.3999,0.3999,0.3999,0.3999,0.3137,0.3182,0.325,0.332,0.337,0.3424,0.3472,0.352,0.3582,0.3662,0.3687,0.3762,0.3828,0.3931,0.3973,0.4031,0.403,0.4047,0.4051,0.4054,0.4052,0.3969,0.4045,0.4045,0.4045,0.4045,0.4045,0,0.32,0.3245,0.3309,0.3391,0.3444,0.3459,0.3525,0.3569,0.3635,0.3694,0.3753,0.3835,0.3905,0.3964,0.4035,0.407,0.4081,0.4087,0.4084,0.4093,0.405,0.4032,0.4077,0.4077,0.4077,0.4077,0.4077,0.4077,0.324,0.3317,0.3347,0.3448,0.3492,0.3566,0.3602,0.3652,0.3699,0.379,0.3847,0.3885,0.3944,0.4019,0.4082,0.4098,0.4122,0.4125,0.4142,0.4101,0.4097,0.4093,0.4077,0.413,0.413,0.4181,0.4182,0.4182]},{"header":{"parameterUnit":"m.s-1","parameterCategory":1,"la1":30.2991,"la2":30.254,"lo1":-89.0895,"lo2":-89.0444,"dy":0.0017,"dx":0.0017,"nx":28,"ny":28,"refTime":"2024-09-01T03:00:00:Z","depth":0,"parameterNumber":3,"parameterNumberName":"V-component_of_WINDS"},"data":[0,0,0,0,0,0,0,0,0,0,0,0,0,0,0,0,0,0,0,0,0,0,0,0,0,0,0,0,0,0,0,0,0,0,0,0,0,0,0,0,0,0,0,0,0,0,0,0,0,0,0,0,0,0,0,0,0,0,1.7041,1.7041,0,1.7066,1.7066,1.7066,1.7054,1.7054,1.7053,1.7053,1.7075,1.7076,1.7077,0,0,0,0,0,0,0,0,0,0,0,0,0,1.6979,1.698,1.7041,1.7041,1.7042,1.7066,1.7066,1.7066,1.7055,1.7054,1.7053,1.7052,1.7075,1.7076,1.7077,0,0,0,0,0,0,0,0,0,0,0,0,0,1.7005,1.698,1.7041,1.7039,1.7039,1.7066,1.7066,1.7066,1.7055,1.7054,1.7053,1.7052,1.7074,1.7076,1.7078,1.7107,0,0,1.7083,1.7084,0,0,0,0,0,0,0,0,1.7003,1.7007,1.7039,1.7039,1.7039,1.7056,1.7052,1.708,1.7055,1.7049,1.7053,1.7052,1.7069,1.7071,1.7078,1.7108,1.7109,1.7083,1.7084,1.7085,1.7085,0,0,0,0,0,0,0,1.7002,1.7006,1.7051,1.7039,1.7039,1.7035,1.7038,1.7057,1.7064,1.7049,1.7048,1.7052,1.7069,1.7076,1.7078,1.711,1.7083,1.7085,1.7086,1.7086,1.7161,1.7162,0,0,0,0,0,0,1.7,1.7005,1.705,1.7052,1.7019,1.7037,1.704,1.7052,1.7064,1.7065,1.7052,1.7051,1.7074,1.7076,1.7079,1.7111,1.7085,1.7087,1.7088,1.716,1.7161,1.7162,0,0,0,0,0,0,1.6999,1.7005,1.7049,1.7028,1.7033,1.7039,1.7052,1.7053,1.706,1.7066,1.7067,1.7059,1.7073,1.7077,1.7099,1.7112,1.7087,1.7089,1.7159,1.716,1.7162,1.7178,0,0,0,0,0,0,1.6997,1.7004,1.7017,1.7028,1.7034,1.7071,1.7053,1.7054,1.7063,1.7061,1.7072,1.7073,1.7073,1.7097,1.7101,1.7114,1.709,1.7158,1.7159,1.7161,1.7177,1.718,1.7183,0,0,0,0,0,1.6995,1.7021,1.7018,1.7023,1.7051,1.7071,1.7075,1.7075,1.7064,1.7076,1.7079,1.7073,1.7111,1.7099,1.7104,1.7118,1.7157,1.7159,1.7161,1.7175,1.718,1.7183,0,0,0,0,0,0,1.7011,1.7023,1.7019,1.705,1.706,1.7069,1.7084,1.708,1.7092,1.709,1.7088,1.7091,1.7114,1.7118,1.7106,1.7145,1.7132,1.7135,1.7141,1.7145,1.7148,1.7146,1.7092,0,0,0,0,0,1.7018,1.7035,1.7044,1.707,1.7075,1.7079,1.7088,1.7087,1.7097,1.7101,1.7106,1.7115,1.7128,1.7137,1.715,1.7178,1.7178,1.7189,1.7192,1.7195,1.7197,1.7208,1.7212,1.7169,1.7169,1.7169,0,0,1.7033,1.7041,1.7052,1.7073,1.7081,1.7096,1.7083,1.7101,1.7112,1.7103,1.7124,1.7129,1.7138,1.7162,1.7173,1.7167,1.7209,1.7198,1.72,1.72,1.7211,1.7215,1.7219,1.717,1.717,1.717,0,0,1.7067,1.7077,1.7097,1.7105,1.7116,1.7118,1.7123,1.7133,1.7135,1.7157,1.715,1.7162,1.7187,1.7192,1.7199,1.7232,1.7225,1.7236,1.7252,1.7263,1.7267,1.727,1.7279,1.7282,1.7239,1.7239,1.7239,0,1.7083,1.7108,1.7108,1.7126,1.7134,1.7127,1.7147,1.7154,1.7169,1.7173,1.7166,1.7194,1.7201,1.7224,1.7232,1.7239,1.7242,1.7234,1.7267,1.727,1.7272,1.7281,1.7285,1.724,1.724,1.724,1.724,0,1.7126,1.7143,1.7158,1.7172,1.7182,1.7201,1.7202,1.7211,1.7209,1.7211,1.723,1.7238,1.725,1.7256,1.7254,1.7279,1.7274,1.7267,1.7253,1.7278,1.7285,1.7289,1.7241,1.7241,1.7241,1.724,0,0,1.7171,1.7183,1.7189,1.7193,1.7204,1.7217,1.7234,1.7246,1.7253,1.7263,1.7275,1.7295,1.7288,1.7295,1.7293,1.7303,1.7325,1.7294,1.7294,1.7297,1.7349,1.7353,1.7357,1.7321,1.7322,1.7322,1.7347,0,1.7203,1.7234,1.7233,1.726,1.7274,1.7266,1.7281,1.7288,1.729,1.73,1.7302,1.7314,1.7305,1.7309,1.7319,1.732,1.7335,1.7319,1.733,1.7331,1.7326,1.7361,1.7366,1.7389,1.735,1.7351,1.7351,0,1.7245,1.7256,1.7284,1.729,1.7296,1.7309,1.7319,1.733,1.7337,1.7337,1.7344,1.734,1.7355,1.7342,1.7361,1.735,1.7354,1.7356,1.7356,1.7356,1.7341,1.7359,1.7397,1.7399,1.7357,1.7356,1.7356,0,1.7271,1.7293,1.7311,1.7316,1.7325,1.7333,1.7337,1.7343,1.735,1.7358,1.7362,1.7372,1.7377,1.7384,1.7382,1.7374,1.74,1.7388,1.7399,1.7399,1.7404,1.7403,1.744,1.741,1.741,1.741,1.741,0,1.7306,1.7323,1.7323,1.7334,1.7352,1.735,1.7368,1.737,1.7375,1.7385,1.738,1.739,1.7388,1.7397,1.7395,1.7409,1.7412,1.7411,1.741,1.7411,1.741,1.7412,1.741,1.7411,1.7411,1.7411,1.7411,0,1.7337,1.7338,1.7357,1.7363,1.7365,1.7378,1.7382,1.7392,1.7393,1.7405,1.7408,1.7409,1.7419,1.7418,1.743,1.7429,1.7445,1.7444,1.7443,1.7442,1.7452,1.745,1.749,1.7494,1.7463,1.7464,1.7464,0,1.7358,1.737,1.7377,1.7383,1.7388,1.7399,1.7405,1.7403,1.741,1.7418,1.7426,1.7435,1.7443,1.7459,1.746,1.7468,1.7465,1.7478,1.7466,1.7465,1.7462,1.746,1.746,1.748,1.748,1.748,1.7481,0,1.7393,1.7393,1.7402,1.7412,1.7419,1.7427,1.7433,1.7439,1.7437,1.7445,1.7455,1.7461,1.7472,1.748,1.7488,1.749,1.7484,1.7485,1.7487,1.7486,1.7484,1.7483,1.7447,1.7483,1.7483,1.7483,1.7483,1.7483,1.7418,1.7427,1.7433,1.7443,1.7448,1.7454,1.7462,1.7464,1.7472,1.7481,1.748,1.749,1.7494,1.7504,1.7507,1.7514,1.7509,1.7513,1.7514,1.7514,1.7514,1.7485,1.7516,1.7515,1.7515,1.7515,1.7515,0,1.7451,1.7453,1.7463,1.7472,1.7479,1.7474,1.748,1.7487,1.7496,1.7501,1.7508,1.7518,1.7526,1.7528,1.7535,1.754,1.7537,1.7542,1.754,1.754,1.752,1.7516,1.7544,1.7544,1.7544,1.7544,1.7544,1.7544,1.7468,1.7483,1.7483,1.7499,1.7502,1.7513,1.7516,1.7521,1.7524,1.7536,1.7542,1.7543,1.7546,1.7553,1.7559,1.7559,1.7561,1.7566,1.7565,1.7545,1.7542,1.7539,1.7536,1.7567,1.7567,1.7585,1.7585,1.7585]}]]